Other Public Products
Issued by NWS Charleston, SC

Current Version | Previous Version | Graphics & Text | Print | Product List | Glossary On
Versions: 1 2 3 4 5 6 7 8 9 10 11 12 13 14 15 16 17 18 19 20 21 22 23 24 25 26 27 28 29 30 31 32 33 34 35 36 37 38 39 40 41 42 43 44 45 46 47 48 49 50
000 FPUS82 KCHS 170727 OPUCHS TEST...KCHS/KSAV Gateway Observations...TEST National Weather Service Charleston SC 200 AM EST WED JAN 17 2018 NOTE: "fair" indicates few or no clouds below 12,000 feet with no significant weather and/or obstructions to visibility. SCZ050-WAZ558-NCZ071-TXZ119-213-PAZ071-DCZ001-FLZ074-172-MI076- NYZ176-178-MAZ016-IL014-TNZ027-NJZ106-GAZ044-MD014-170800- ...Gateway Observations for Charleston International... CITY SKY/WX TMP DP RH WIND PRES REMARKS Chas Airport MOCLDY 38 35 89 CALM 30.28F Seattle CLOUDY 47 37 68 CALM 30.15F Charlotte CLOUDY 42 26 53 CALM 30.24F Dallas DFW CLOUDY 16 2 54 NE6 30.73F WCI 7 Dallas Love CLEAR 19 0 43 NE6 30.75F WCI 11 Philladelphia LGT RAIN 35 32 88 NW8 30.29F FOG WCI 29 Wash National CLOUDY 34 29 82 NW12 30.33F WCI 25 Baltimore CLOUDY 33 30 88 W6 30.31S WCI 28 Miami MOCLDY 65 55 70 N5 30.19F Detroit FLURRIES 5 1 83 W6 30.46S WCI -6 Newark LGT RAIN 34 28 79 NE6 30.29F WCI 29 Laguardia LGT RAIN 35 31 85 NE6 30.29S WCI 30 J F K CLOUDY 36 33 89 N6 30.30F WCI 31 Boston Logan CLOUDY 32 28 85 S3 30.39S Ft. Lauderdale FAIR 61 56 83 N6 30.18F Chicago O`Hare FAIR 12 7 80 W8 30.51S WCI 0 Chicago Midway FAIR 13 8 81 W7 30.52S WCI 3 Houston Bush FAIR 24 12 60 N14 30.71F WCI 12 Houston Hobby FAIR 24 15 68 N20 30.69F WCI 10 Nashville CLOUDY 7 0 73 N7 30.61F WCI -5 Atlanta LGT SNOW 24 21 88 NW12 30.35S VSB 1 WCI 13 $$ GAZ044-118-TXZ119-213-NCZ071-DCZ001-MDZ014-506-PAZ021-071-NJZ106- NYZ176-178-MAZ106-OHZ011-021-055-MIZ076-KYZ091-ILZ014-INZ047- MNZ060-ONZ431-170800- ...Gateway Observations for Savannah International... CITY SKY/WX TMP DP RH WIND PRES REMARKS Savannah Arpt FAIR 37 35 92 CALM 30.28F Atlanta LGT SNOW 24 21 88 NW12 30.35S VSB 1 WCI 13 Charlotte CLOUDY 42 26 53 CALM 30.24F Dallas DFW CLOUDY 16 2 54 NE6 30.73F WCI 7 Houston Bush FAIR 24 12 60 N14 30.71F WCI 12 Wash National CLOUDY 34 29 82 NW12 30.33F WCI 25 Wash Dulles CLOUDY 31 27 85 N10 30.33R WCI 22 Baltimore CLOUDY 33 30 88 W6 30.31S WCI 28 Philadelphia LGT RAIN 35 32 88 NW8 30.29F FOG WCI 29 Newark LGT RAIN 34 28 79 NE6 30.29F WCI 29 Laguardia LGT RAIN 35 31 85 NE6 30.29S WCI 30 J F K CLOUDY 36 33 89 N6 30.30F WCI 31 Boston CLOUDY 32 28 85 S3 30.39S Pittsburg FAIR 3 0 87 W3 30.43F Akron CLOUDY 3 -3 76 W6 30.44S WCI -8 Cleveland MOCLDY 3 -2 79 SW10 30.49F WCI -12 Cincinnati FLURRIES 7 4 87 W6 30.53S WCI -3 Columbus FLURRIES 6 2 84 W5 30.53R WCI -3 Detroit FLURRIES 5 1 83 W6 30.46S WCI -6 Chicago O`Hare FAIR 12 7 80 W8 30.51S WCI 0 Minneapolis FAIR -1 -4 87 SW6 30.49F WCI -13 Indianapolis FLURRIES 5 2 87 SW8 30.53F WCI -8 Toronto Canada FLURRIES 14 9 79 SW7 30.36R WCI 4 $$

USA.gov is the U.S. government's official web portal to all federal, state and local government web resources and services.